Шалкар

Казахстан     47˚49′53″N   59˚37′09″E
темп.,
°C
ветер,
м/с
пор.,
м/с
влажн.,
%
обл.,
%
осадки,
мм/ч
давл.,
гПа
погр.,
м
6 декабря, вс
вс623:00−15˚св6108859 0.0 1040470
02:00−16˚св5888100 0.0 1041410
05:00−17˚св578898 0.0 1041332
08:00−18˚св578952 0.0 1042274
11:00−17˚св578345 0.0 1043306
14:00−15˚св567913 0.0 1042337
17:00−15˚ссв468513 0.0 1042315
20:00−16˚св58884 0.0 1042296
7 декабря, пн
пн723:00−16˚св37905 0.0 1042268
02:00−16˚ссв46910 0.0 1041238
05:00−16˚ссв47920 0.0 1041211
08:00−16˚ссв36910 0.0 1040169
11:00−14˚ссв35787 0.0 1041204
14:00−11˚ссв23689 0.0 1039240
17:00−12˚с12775 0.0 103921
20:00−12˚ссв11790 0.0 104021
8 декабря, вт
вт823:00−13˚в00800 0.0 104021
02:00−13˚юз11800 0.0 104020
05:00−13˚зюз22810 0.0 104020
08:00−13˚з12790 0.0 104020
11:00−11˚зюз12670 0.0 104078
14:00−8˚зюз23600 0.0 1040231
17:00−10˚юз23700 0.0 104023
20:00−10˚з23750 0.0 104021
9 декабря, ср
ср923:00−11˚зюз22760 0.0 104121
02:00−11˚зюз23740 0.0 104122
05:00−11˚зюз33720 0.0 104029
08:00−11˚з23720 0.0 104121
11:00−9˚з23680 0.0 1041117
14:00−7˚з35650 0.0 1040273
17:00−8˚зсз33790 0.0 103934
20:00−9˚зсз33860 0.0 103947
10 декабря, чт
чт1023:00−10˚зсз23830 0.0 103932
02:00−10˚зсз33810 0.0 103938
05:00−11˚сз33800 0.0 103839
08:00−11˚ссз33820 0.0 103840
11:00−9˚с22820 0.0 1039138
14:00−7˚ссв23700 0.0 1039298
17:00−8˚ссв33780 0.0 103843
20:00−10˚св33880 0.0 103951